CW2882 Weather Reports


time (UTC)temp
C
wind
direction
speed
KPH
gust
KPH
rain 1hr
cm
rain 24hr
cm
rain mn
cm
humidity
%
barometer
mb
20260509044513 11 283 0.0 1.6 0.00 0.00 0.00 78 1023.2
20260509043012 11 123 0.0 4.8 0.00 0.00 0.00 78 1023.1
20260509041511 11 252 0.0 4.8 0.00 0.00 0.00 77 1022.9
20260509040010 11 259 1.6 4.8 0.00 0.00 0.00 77 1022.9
20260509034509 11 250 0.0 4.8 0.00 0.00 0.00 77 1022.8
20260509033007 11 220 0.0 3.2 0.00 0.00 0.00 76 1022.7
20260509031506 11 153 0.0 3.2 0.00 0.00 0.00 76 1022.6
20260509030007 12 252 1.6 4.8 0.00 0.00 0.00 75 1022.5
20260509024503 12 271 0.0 4.8 0.00 0.00 0.00 74 1022.4
20260509023003 12 144 0.0 4.8 0.00 0.00 0.00 73 1022.4
20260509021502 13 209 1.6 8.0 0.00 0.00 0.00 71 1022.4
20260509020002 13 203 0.0 4.8 0.00 0.00 0.00 72 1022.4
20260509014502 13 224 0.0 8.0 0.00 0.00 0.00 72 1022.4
20260509013001 12 120 1.6 6.4 0.00 0.00 0.00 75 1022.4
20260509011600 12 319 0.0 8.0 0.00 0.00 0.00 74 1022.4
20260509010059 13 269 1.6 6.4 0.00 0.00 0.00 72 1022.3
20260509004621 13 170 1.6 9.7 0.00 0.00 0.00 74 1022.4
20260509003058 13 252 1.6 9.7 0.00 0.00 0.00 74 1022.3
20260509001557 13 302 3.2 12.9 0.00 0.00 0.00 71 1022.4
20260509000056 14 115 1.6 11.3 0.00 0.00 0.00 70 1022.4
20260508234553 13 349 3.2 11.3 0.00 0.00 0.00 72 1022.3
20260508233106 13 160 1.6 9.7 0.00 0.00 0.00 74 1022.3
20260508231556 13 250 1.6 9.7 0.00 0.00 0.00 75 1022.4
20260508230056 12 220 3.2 11.3 0.00 0.00 0.00 76 1022.3
20260508224649 13 250 1.6 8.0 0.00 0.00 0.00 77 1022.1
20260508223049 12 262 4.8 11.3 0.00 0.00 0.00 76 1022.1
20260508221548 13 207 3.2 11.3 0.00 0.00 0.00 75 1022.2
20260508220047 13 271 3.2 12.9 0.00 0.00 0.00 77 1022.0
20260508214546 12 279 3.2 9.7 0.00 0.00 0.00 77 1022.1
20260508213046 12 155 0.0 11.3 0.00 0.00 0.00 80 1022.0
20260508211542 12 242 1.6 17.7 0.00 0.00 0.00 79 1021.9
20260508210042 12 155 3.2 11.3 0.00 0.00 0.00 78 1021.8
20260508204548 12 139 3.2 12.9 0.00 0.00 0.00 79 1021.7
20260508203050 12 111 1.6 9.7 0.00 0.00 0.00 80 1021.7
20260508201538 12 214 4.8 12.9 0.00 0.00 0.00 78 1021.6
20260508200047 13 1 0.0 14.5 0.00 0.00 0.00 77 1021.4
20260508194531 12 227 4.8 9.7 0.00 0.00 0.00 78 1021.2
20260508193028 12 120 0.0 11.3 0.00 0.00 0.00 78 1021.1
20260508191534 12 143 3.2 9.7 0.00 0.00 0.00 77 1021.1
20260508190026 12 126 3.2 12.9 0.00 0.00 0.00 78 1021.0
20260508184525 12 138 1.6 8.0 0.00 0.00 0.00 78 1020.8
20260508183023 12 252 1.6 14.5 0.00 0.00 0.00 80 1020.7
20260508181522 11 264 3.2 9.7 0.00 0.00 0.00 81 1020.6
20260508180020 11 162 1.6 6.4 0.00 0.00 0.00 83 1020.3
20260508174525 11 134 3.2 12.9 0.00 0.00 0.00 82 1020.3
20260508173017 11 98 1.6 11.3 0.00 0.00 0.00 82 1020.1
20260508171524 11 250 3.2 9.7 0.00 0.00 0.00 81 1019.9
20260508170014 11 136 0.0 9.7 0.00 0.00 0.00 81 1019.6
20260508164511 11 220 3.2 8.0 0.00 0.00 0.00 81 1019.4
20260508163010 11 172 0.0 9.7 0.00 0.00 0.00 81 1019.3
20260508161509 12 156 3.2 8.0 0.00 0.00 0.00 81 1019.1
20260508160013 11 181 1.6 11.3 0.00 0.00 0.00 83 1019.0
20260508154504 11 182 1.6 8.0 0.00 0.00 0.00 85 1019.2
20260508153003 10 149 1.6 4.8 0.00 0.00 0.00 86 1019.0
20260508151604 10 120 1.6 8.0 0.00 0.00 0.00 85 1018.9
20260508150057 10 127 0.0 3.2 0.00 0.00 0.00 86 1018.8
20260508144555 10 226 0.0 4.8 0.00 0.00 0.00 88 1018.8
20260508143057 10 123 1.6 6.4 0.00 0.00 0.00 88 1018.3
20260508141551 10 214 0.0 4.8 0.00 0.00 0.00 90 1018.2
20260508140054 9 138 0.0 4.8 0.00 0.00 0.00 91 1018.0
20260508134551 9 260 0.0 4.8 0.00 0.00 0.00 91 1017.8
20260508133048 9 130 0.0 6.4 0.00 0.00 0.00 92 1017.7
20260508131547 9 278 0.0 8.0 0.00 0.00 0.00 92 1017.6
20260508130058 9 144 1.6 9.7 0.00 0.00 0.00 93 1017.5
20260508124548 9 221 1.6 9.7 0.00 0.00 0.00 92 1017.5
20260508123050 9 160 1.6 8.0 0.00 0.00 0.00 92 1017.4
20260508121542 9 180 3.2 9.7 0.00 0.00 0.00 92 1017.3
20260508120036 9 131 3.2 9.7 0.00 0.00 0.00 92 1017.4
20260508114535 9 250 0.0 6.4 0.00 0.00 0.00 92 1017.2
20260508113030 9 169 0.0 4.8 0.00 0.00 0.00 92 1017.0
20260508111529 9 119 0.0 4.8 0.00 0.00 0.00 91 1017.0
20260508110033 9 156 0.0 3.2 0.00 0.00 0.00 91 1017.0
20260508104529 9 226 0.0 1.6 0.00 0.00 0.00 91 1017.0
20260508103030 9 193 0.0 4.8 0.00 0.00 0.00 90 1016.8
20260508101527 9 201 0.0 4.8 0.00 0.00 0.00 90 1016.9
20260508100027 9 158 0.0 3.2 0.00 0.00 0.00 90 1016.9
20260508094540 9 156 0.0 3.2 0.00 0.00 0.00 90 1016.7
20260508093027 9 197 0.0 4.8 0.00 0.00 0.00 90 1016.7
20260508091540 9 151 0.0 1.6 0.00 0.00 0.00 89 1016.7
20260508090026 9 219 0.0 1.6 0.00 0.00 0.00 90 1016.6
20260508084522 9 153 0.0 3.2 0.00 0.00 0.00 90 1016.7
20260508083020 9 163 0.0 0.0 0.00 0.00 0.00 90 1016.8
20260508081530 9 148 0.0 1.6 0.00 0.00 0.00 91 1016.8
20260508080017 9 155 0.0 1.6 0.00 0.00 0.00 91 1016.9
20260508074516 9 139 0.0 1.6 0.00 0.00 0.00 91 1017.1
20260508073014 9 150 0.0 4.8 0.00 0.00 0.00 91 1017.1
20260508071520 9 119 0.0 1.6 0.00 0.00 0.00 91 1017.1
20260508070012 9 134 0.0 4.8 0.00 0.00 0.00 91 1017.1
20260508064514 9 135 1.6 6.4 0.00 0.00 0.00 91 1017.2
20260508063010 9 120 1.6 4.8 0.00 0.00 0.00 92 1017.2
20260508061510 9 148 0.0 3.2 0.00 0.00 0.00 91 1017.3
20260508060019 9 124 0.0 4.8 0.00 0.00 0.00 91 1017.4
20260508054509 9 129 0.0 3.2 0.00 0.00 0.00 90 1017.4
20260508053009 10 209 1.6 6.4 0.00 0.00 0.00 90 1017.4
20260508051507 10 156 0.0 4.8 0.00 0.00 0.00 90 1017.3
20260508050009 10 160 0.0 4.8 0.00 0.00 0.00 90 1017.2